Jersey, United Kingdom

4:31 PM GMT on February 25, 2017 (GMT +0000)
Jersey

Weather History for EGJJ - October, 2011

Change the Weather History Date:

Wednesday, October 26, 2011

  Actual Average Record
Temperature  
Mean Temperature 54 °F -  
Max Temperature 58 °F 52 °F 66 °F (2005)
Min Temperature 50 °F 46 °F 42 °F (1997)
Degree Days  
Heating Degree Days 11    
Growing Degree Days 4 (Base 50)    
Moisture  
Dew Point 49 °F    
Average Humidity 78    
Maximum Humidity 82    
Minimum Humidity 65    
Precipitation  
Precipitation 0.00 in - - ()
Sea Level Pressure  
Sea Level Pressure 29.65 in    
Wind  
Wind Speed 15 mph ()    
Max Wind Speed 23 mph    
Max Gust Speed 28 mph    
Visibility 6.4 miles    
Events      
Averages and records for this station are not official NWS values.
T = Trace of Precipitation, MM = Missing Value Source: Averaged Metar Reports

Daily Weather History Graph

Daily Weather History Graph

Search for Another Location

Airport or City:

Trip Planner

Search our weather history database for the weather conditions in past years. The results will help you decide how hot, cold, wet, or windy it might be!

Date:

Astronomy

Oct. 26, 2011 Rise Set
Actual Time 7:46 AM BST 5:58 PM BST
Civil Twilight 7:13 AM BST 6:31 PM BST
Nautical Twilight 6:36 AM BST 7:08 PM BST
Astronomical Twilight 5:59 AM BST 7:45 PM BST
Moon 7:18 AM BST (10/26) 5:25 PM BST (10/26)
Length of Visible Light 11h 18m
Length of Day
10h 12m
Waning Crescent, 0% of the Moon is Illuminated
Oct 26
Waning Crescent
Oct 26
New
Nov 2
First Quarter
Nov 10
Full
Nov 18
Last Quarter

Hourly Weather History & Observations

Time (BST) Temp. Dew Point Humidity Pressure Visibility Wind Dir Wind Speed Gust Speed Precip Events Conditions
1:00 AM 51 °F 45 °F 73% 29.61 in 37 mi SW 15.0 mph - -   Scattered Clouds
3:50 AM 51.8 °F 46.4 °F 82% 29.59 in 6.2 mi SSW 18.4 mph - N/A   Partly Cloudy
4:00 AM 52 °F 45 °F 70% 29.63 in 31 mi SSW 17.3 mph - -   Partly Cloudy
4:20 AM 51.8 °F 46.4 °F 82% 29.59 in 6.2 mi South 18.4 mph - N/A   Partly Cloudy
4:50 AM 51.8 °F 46.4 °F 82% 29.59 in 6.2 mi SSW 16.1 mph - N/A   Partly Cloudy
5:20 AM 51.8 °F 46.4 °F 82% 29.62 in 6.2 mi South 15.0 mph - N/A   Partly Cloudy
5:50 AM 51.8 °F 46.4 °F 82% 29.62 in 6.2 mi SSW 16.1 mph - N/A   Partly Cloudy
6:20 AM 51.8 °F 46.4 °F 82% 29.62 in 6.2 mi South 16.1 mph - N/A   Partly Cloudy
6:50 AM 51.8 °F 46.4 °F 82% 29.62 in 6.2 mi SSW 17.3 mph - N/A   Scattered Clouds
7:00 AM 52 °F 47 °F 76% 29.65 in 31 mi SSW 17.3 mph - -   Partly Cloudy
7:20 AM 51.8 °F 46.4 °F 82% 29.62 in 6.2 mi SSW 17.3 mph - N/A   Partly Cloudy
7:50 AM 51.8 °F 46.4 °F 82% 29.62 in 6.2 mi South 16.1 mph - N/A   Partly Cloudy
8:20 AM 51.8 °F 46.4 °F 82% 29.65 in 6.2 mi South 17.3 mph - N/A   Partly Cloudy
8:50 AM 51.8 °F 46.4 °F 82% 29.65 in 6.2 mi South 16.1 mph - N/A   Partly Cloudy
9:20 AM 53.6 °F 48.2 °F 82% 29.65 in 6.2 mi SSW 16.1 mph - N/A   Partly Cloudy
9:50 AM 53.6 °F 48.2 °F 82% 29.68 in 6.2 mi South 17.3 mph - N/A   Partly Cloudy
10:00 AM 54 °F 48 °F 73% 29.69 in 37 mi South 21.9 mph - -   Scattered Clouds
10:20 AM 53.6 °F 48.2 °F 82% 29.68 in 6.2 mi South 18.4 mph - N/A   Partly Cloudy
10:50 AM 55.4 °F 48.2 °F 77% 29.68 in 6.2 mi SSW 16.1 mph - N/A   Partly Cloudy
11:20 AM 55.4 °F 50.0 °F 82% 29.68 in 6.2 mi South 18.4 mph - N/A   Partly Cloudy
11:50 AM 55.4 °F 48.2 °F 77% 29.68 in 6.2 mi South 16.1 mph - N/A   Partly Cloudy
12:20 PM 57.2 °F 48.2 °F 72% 29.68 in 6.2 mi South 15.0 mph - N/A   Partly Cloudy
12:50 PM 57.2 °F 48.2 °F 72% 29.68 in 6.2 mi South 17.3 mph - N/A   Partly Cloudy
1:00 PM 57 °F 49 °F 65% 29.70 in 37 mi South 19.6 mph - -   Scattered Clouds
1:20 PM 57.2 °F 50.0 °F 77% 29.68 in 6.2 mi South 17.3 mph - N/A   Partly Cloudy
1:50 PM 57.2 °F 50.0 °F 77% 29.68 in 6.2 mi South 15.0 mph 27.6 mph N/A   Partly Cloudy
2:20 PM 57.2 °F 50.0 °F 77% 29.68 in 6.2 mi South 16.1 mph - N/A   Partly Cloudy
2:50 PM 57.2 °F 50.0 °F 77% 29.68 in 6.2 mi South 15.0 mph - N/A   Partly Cloudy
3:20 PM 57.2 °F 50.0 °F 77% 29.68 in 6.2 mi South 15.0 mph - N/A   Partly Cloudy
3:50 PM 57.2 °F 50.0 °F 77% 29.68 in 6.2 mi South 13.8 mph - N/A   Partly Cloudy
4:00 PM 57 °F 50 °F 70% 29.69 in 34 mi South 12.7 mph - -   Scattered Clouds
4:20 PM 57.2 °F 50.0 °F 77% 29.65 in 6.2 mi SSE 12.7 mph - N/A   Scattered Clouds
4:50 PM 57.2 °F 50.0 °F 77% 29.65 in 6.2 mi SSE 17.3 mph - N/A   Partly Cloudy
5:20 PM 57.2 °F 51.8 °F 82% 29.65 in 6.2 mi SSE 15.0 mph - N/A   Partly Cloudy
5:50 PM 57.2 °F 50.0 °F 77% 29.65 in 6.2 mi SSE 19.6 mph - N/A   Partly Cloudy
6:20 PM 57.2 °F 50.0 °F 77% 29.65 in 6.2 mi SSE 16.1 mph - N/A   Partly Cloudy
6:50 PM 57.2 °F 51.8 °F 82% 29.65 in 6.2 mi SE 16.1 mph - N/A   Partly Cloudy
7:00 PM 57 °F 51 °F 74% 29.68 in 31 mi SSE 17.3 mph - -   Overcast
7:20 PM 57.2 °F 50.0 °F 77% 29.65 in 6.2 mi SE 18.4 mph - N/A   Partly Cloudy
7:50 PM 57.2 °F 50.0 °F 77% 29.65 in - SE 17.3 mph - N/A   Clear
8:20 PM 57.2 °F 50.0 °F 77% 29.65 in 6.2 mi SE 17.3 mph - N/A   Partly Cloudy
8:50 PM 57.2 °F 50.0 °F 77% 29.65 in 6.2 mi SE 18.4 mph - N/A   Partly Cloudy
9:20 PM 57.2 °F 50.0 °F 77% 29.65 in 6.2 mi SE 23.0 mph - N/A   Partly Cloudy
10:00 PM 57 °F 49 °F 68% 29.66 in 12 mi SE 23.0 mph - -   Overcast